Location: *
(45.5667°S, 177.5167°W)
Time: 15:29:20
(UTC+00:00)

SJ-12 - Pass Details

Date: 29 May 2022
Orbit: 565 x 582 km, 97.7° (Epoch: 28 June)

Event Time Altitude Azimuth Distance (km) Brightness Sun altitude
Rises 04:58:07 0° 168° (SSE) 2,850 7.1 -7.1°
Reaches altitude 10° 05:00:18 10° 168° (SSE) 1,940 6.3 -7.5°
Maximum altitude 05:04:32 88° 250° (WSW) 599 4.0 -8.2°
Drops below altitude 10° 05:08:41 10° 345° (NNW) 1,906 7.1 -8.8°
Sets 05:10:49 0° 345° (NNW) 2,795 8.0 -9.2°
